Location: ????????
(38.4362°N, 22.8767°E)
Time: 14:27:25
(UTC+00:00)

USA 276 - Visible Passes

Search period start: 12 July 2024 00:00
Search period end: 22 July 2024 00:00
Orbit: 366 x 369 km, 50.0° (Epoch: 12 July)

Date Brightness Start Highest point End Pass type
(mag) Time Alt. Az. Time Alt. Az. Time Alt. Az.
12 Jul 5.0 20:23:54 10° NNW 20:25:15 12° NNE 20:26:28 10° NE visible
13 Jul 4.6 20:29:39 10° NNW 20:31:41 17° NNE 20:31:55 16° NNE visible
14 Jul 4.3 20:35:27 10° NNW 20:37:21 23° N 20:37:21 23° N visible
15 Jul 4.8 19:08:12 10° N 19:09:28 12° NNE 19:10:43 10° NE visible
15 Jul 4.4 20:41:19 10° NW 20:42:48 24° NNW 20:42:48 24° NNW visible
16 Jul 4.5 19:13:48 10° NNW 19:15:47 16° NNE 19:17:47 10° ENE visible
16 Jul 4.7 20:47:17 10° NW 20:48:16 19° NW 20:48:16 19° NW visible
17 Jul 3.8 19:19:29 10° NNW 19:22:00 24° NNE 19:23:23 18° ENE visible
17 Jul 5.1 20:53:27 10° WNW 20:53:44 12° WNW 20:53:44 12° WNW visible
18 Jul 2.7 19:25:15 10° NW 19:28:06 43° NNE 19:28:53 34° ENE visible
19 Jul 1.7 19:31:07 10° NW 19:34:05 86° SSW 19:34:23 69° SE visible
20 Jul 2.9 19:37:11 10° WNW 19:39:56 36° SW 19:39:56 36° SW visible
21 Jul 4.2 19:43:40 10° W 19:45:30 17° SW 19:45:30 17° SW visible
